User: anonymous   Login
Location: *
(2.5500°S, 65.9667°W)
Time: 13:00:34
(UTC+00:00)
Language:

H-2A R/B - Orbit

View from above orbital plane
View from above orbital plane
View from above satellite
View from above satellite

Ground track
Ground track

The orbit data is extracted from the following two-line orbital elements,

1 28932U 06002B   22272.89691004  .00003419  00000-0  30435-3 0  9999
2 28932  98.2810 321.0560 0087402 109.0229 252.0483 14.93891853905633
Epoch (UTC): 29 September 2022 21:31:33
Eccentricity: 0.0087402
inclination: 98.2810°
perigee height: 525 km
apogee height: 646 km
right ascension of ascending node: 321.0560°
argument of perigee: 109.0229°
revolutions per day: 14.93891853
mean anomaly at epoch: 252.0483°
orbit number at epoch: 90563

The dashed part of the orbit path shows where the satellite is in the earth's shadow,  

DLR